QPF
0.00 0.01 0.02 0.04 0.10 0.13 0.12 0.08 0.06 0.04 0.03 0.02 0.02 0.02 0.05 0.06 0.10 0.14 0.15 0.13 0.10 0.08 0.06 0.06 0.05 0.05 0.06 0.09 0.10 0.10 0.07 0.06 0.06 0.05 0.04 0.04 0.04 0.04 0.04 0.05 0.07 0.06 0.06 0.07 0.07 0.04 0.04 0.04 0.05
0.00 0.01 0.03 0.06 0.16 0.14 0.11 0.09 0.05 0.02 0.01 0.01 0.01 0.01 0.02 0.02 0.04 0.09 0.14 0.12 0.07 0.05 0.05 0.04 0.04 0.04 0.06 0.07 0.08 0.07 0.08 0.09 0.06 0.04 0.05 0.04 0.04 0.05 0.04 0.04 0.06 0.06 0.06 0.07 0.07 0.06 0.06 0.06 0.05
0.01 0.02 0.03 0.09 0.11 0.08 0.06 0.04 0.02 0.01 0.01 0.01 0.02 0.02 0.03 0.05 0.07 0.10 0.13 0.08 0.06 0.05 0.06 0.03 0.03 0.04 0.06 0.06 0.06 0.09 0.15 0.14 0.08 0.05 0.04 0.03 0.03 0.04 0.06 0.07 0.07 0.07 0.08 0.12 0.13 0.11 0.11 0.09 0.07
0.01 0.02 0.04 0.07 0.08 0.05 0.03 0.02 0.01 0.00 0.00 0.01 0.02 0.03 0.04 0.06 0.07 0.09 0.10 0.07 0.06 0.07 0.07 0.04 0.04 0.05 0.06 0.06 0.06 0.11 0.14 0.14 0.12 0.08 0.03 0.02 0.03 0.04 0.05 0.07 0.08 0.08 0.11 0.14 0.14 0.12 0.11 0.10 0.08
0.02 0.06 0.09 0.09 0.06 0.05 0.03 0.01 0.00 0.01 0.00 0.00 0.01 0.02 0.05 0.06 0.06 0.07 0.06 0.05 0.05 0.08 0.07 0.06 0.06 0.07 0.06 0.06 0.06 0.07 0.12 0.16 0.12 0.06 0.03 0.03 0.03 0.03 0.04 0.06 0.07 0.07 0.08 0.10 0.09 0.09 0.08 0.07 0.06
0.04 0.12 0.14 0.10 0.05 0.04 0.02 0.01 0.01 0.01 0.00 0.00 0.00 0.01 0.06 0.07 0.07 0.05 0.04 0.04 0.05 0.04 0.04 0.05 0.05 0.06 0.06 0.05 0.05 0.05 0.05 0.05 0.05 0.04 0.03 0.03 0.03 0.03 0.03 0.05 0.08 0.10 0.09 0.08 0.07 0.08 0.09 0.07 0.06
0.05 0.10 0.12 0.07 0.04 0.03 0.01 0.00 0.00 0.01 0.00 0.00 0.01 0.02 0.06 0.09 0.09 0.07 0.04 0.04 0.05 0.04 0.04 0.04 0.04 0.03 0.03 0.03 0.04 0.04 0.04 0.04 0.03 0.03 0.03 0.03 0.03 0.02 0.03 0.05 0.10 0.17 0.14 0.09 0.09 0.09 0.09 0.07 0.07
0.04 0.07 0.09 0.06 0.02 0.01 0.01 0.00 0.00 0.00 0.00 0.00 0.02 0.04 0.08 0.08 0.05 0.05 0.06 0.07 0.06 0.05 0.06 0.05 0.04 0.04 0.05 0.03 0.04 0.05 0.04 0.04 0.04 0.04 0.04 0.04 0.03 0.03 0.02 0.03 0.10 0.20 0.16 0.11 0.10 0.10 0.07 0.06 0.06
0.02 0.07 0.08 0.05 0.02 0.01 0.00 0.01 0.01 0.00 0.00 0.00 0.02 0.04 0.06 0.05 0.04 0.04 0.05 0.05 0.07 0.05 0.05 0.06 0.05 0.06 0.07 0.03 0.02 0.03 0.04 0.04 0.06 0.07 0.06 0.06 0.07 0.05 0.05 0.03 0.08 0.13 0.13 0.10 0.10 0.10 0.07 0.06 0.06
0.03 0.07 0.06 0.01 0.01 0.00 0.00 0.00 0.00 0.00 0.00 0.01 0.02 0.03 0.03 0.03 0.03 0.03 0.03 0.04 0.04 0.04 0.05 0.06 0.05 0.06 0.07 0.03 0.03 0.05 0.05 0.05 0.09 0.12 0.10 0.09 0.08 0.08 0.07 0.06 0.06 0.07 0.07 0.07 0.08 0.08 0.06 0.07 0.10
0.02 0.05 0.01 0.00 0.00 0.00 0.00 0.00 0.00 0.01 0.01 0.01 0.04 0.04 0.03 0.02 0.03 0.03 0.03 0.04 0.03 0.03 0.04 0.05 0.05 0.05 0.06 0.05 0.03 0.04 0.05 0.07 0.12 0.13 0.10 0.09 0.07 0.07 0.07 0.06 0.07 0.07 0.08 0.09 0.09 0.08 0.08 0.08 0.09
0.04 0.03 0.00 0.00 0.00 0.00 0.00 0.00 0.00 0.01 0.01 0.02 0.04 0.04 0.02 0.02 0.03 0.03 0.03 0.04 0.04 0.03 0.02 0.04 0.05 0.05 0.06 0.04 0.03 0.04 0.05 0.07 0.09 0.09 0.07 0.06 0.07 0.07 0.07 0.07 0.09 0.11 0.13 0.13 0.11 0.08 0.08 0.09 0.08
0.01 0.00 0.00 0.00 0.00 0.00 0.00 0.00 0.00 0.01 0.01 0.01 0.03 0.03 0.03 0.02 0.03 0.04 0.03 0.03 0.03 0.04 0.03 0.06 0.07 0.06 0.07 0.07 0.06 0.04 0.05 0.05 0.05 0.06 0.05 0.05 0.05 0.06 0.06 0.09 0.11 0.12 0.11 0.09 0.06 0.05 0.06 0.07 0.07
0.00 0.00 0.00 0.00 0.00 0.00 0.00 0.00 0.00 0.01 0.00 0.00 0.02 0.04 0.04 0.03 0.03 0.04 0.03 0.03 0.03 0.04 0.05 0.05 0.05 0.06 0.08 0.07 0.06 0.05 0.05 0.06 0.06 0.05 0.04 0.04 0.04 0.05 0.08 0.10 0.12 0.11 0.08 0.05 0.04 0.03 0.05 0.05 0.07
0.00 0.00 0.01 0.00 0.00 0.00 0.01 0.01 0.01 0.01 0.00 0.00 0.02 0.04 0.06 0.04 0.03 0.03 0.04 0.05 0.04 0.05 0.06 0.05 0.05 0.07 0.08 0.07 0.06 0.05 0.04 0.04 0.04 0.04 0.04 0.03 0.03 0.04 0.07 0.10 0.11 0.10 0.08 0.05 0.04 0.04 0.06 0.08 0.09
0.02 0.02 0.02 0.01 0.00 0.00 0.01 0.05 0.02 0.00 0.00 0.00 0.01 0.04 0.06 0.04 0.03 0.03 0.03 0.05 0.06 0.05 0.05 0.05 0.05 0.05 0.06 0.07 0.06 0.04 0.04 0.04 0.04 0.05 0.05 0.03 0.03 0.04 0.06 0.07 0.07 0.07 0.06 0.05 0.05 0.08 0.08 0.14 0.14
0.04 0.03 0.03 0.01 0.00 0.00 0.01 0.03 0.01 0.00 0.00 0.01 0.01 0.02 0.03 0.03 0.02 0.02 0.03 0.04 0.04 0.04 0.03 0.04 0.06 0.04 0.02 0.03 0.04 0.05 0.05 0.06 0.06 0.06 0.06 0.04 0.03 0.03 0.04 0.06 0.06 0.05 0.04 0.05 0.04 0.08 0.07 0.10 0.14
0.02 0.02 0.02 0.01 0.00 0.00 0.00 0.01 0.01 0.00 0.00 0.01 0.00 0.00 0.01 0.02 0.03 0.02 0.02 0.02 0.03 0.03 0.03 0.04 0.06 0.05 0.03 0.03 0.06 0.06 0.06 0.07 0.07 0.07 0.05 0.03 0.03 0.03 0.04 0.06 0.07 0.06 0.05 0.05 0.05 0.06 0.08 0.08 0.09
0.01 0.01 0.02 0.01 0.00 0.00 0.00 0.00 0.00 0.00 0.00 0.01 0.02 0.01 0.01 0.01 0.02 0.01 0.01 0.02 0.03 0.04 0.03 0.04 0.05 0.04 0.03 0.04 0.07 0.07 0.06 0.06 0.06 0.05 0.03 0.03 0.03 0.03 0.05 0.06 0.07 0.07 0.06 0.07 0.06 0.05 0.07 0.09 0.09
0.00 0.01 0.01 0.00 0.00 0.00 0.01 0.01 0.00 0.00 0.00 0.00 0.01 0.01 0.01 0.01 0.01 0.01 0.02 0.02 0.02 0.04 0.04 0.04 0.04 0.03 0.04 0.06 0.09 0.08 0.06 0.05 0.04 0.04 0.04 0.02 0.03 0.02 0.03 0.05 0.06 0.06 0.07 0.08 0.07 0.05 0.05 0.06 0.08
0.01 0.01 0.01 0.00 0.00 0.00 0.02 0.04 0.02 0.01 0.00 0.00 0.00 0.00 0.01 0.01 0.01 0.01 0.01 0.02 0.03 0.03 0.03 0.04 0.04 0.05 0.06 0.07 0.06 0.07 0.05 0.05 0.05 0.05 0.06 0.04 0.04 0.03 0.03 0.04 0.06 0.07 0.06 0.07 0.08 0.06 0.05 0.06 0.08
0.01 0.00 0.00 0.00 0.01 0.02 0.02 0.05 0.05 0.01 0.01 0.01 0.00 0.00 0.00 0.00 0.00 0.01 0.02 0.02 0.02 0.03 0.03 0.05 0.05 0.05 0.07 0.06 0.05 0.05 0.06 0.06 0.07 0.09 0.09 0.08 0.06 0.05 0.05 0.05 0.07 0.08 0.06 0.06 0.06 0.06 0.06 0.07 0.07
0.00 0.00 0.00 0.00 0.00 0.01 0.01 0.03 0.04 0.02 0.04 0.01 0.00 0.00 0.00 0.00 0.00 0.00 0.00 0.01 0.01 0.02 0.02 0.04 0.03 0.04 0.06 0.06 0.05 0.04 0.04 0.04 0.05 0.06 0.07 0.07 0.06 0.06 0.05 0.06 0.06 0.07 0.06 0.06 0.06 0.08 0.07 0.06 0.06
0.00 0.00 0.00 0.01 0.02 0.05 0.01 0.02 0.04 0.02 0.02 0.01 0.00 0.00 0.00 0.00 0.00 0.00 0.00 0.01 0.01 0.01 0.02 0.03 0.03 0.04 0.04 0.05 0.04 0.03 0.05 0.06 0.07 0.06 0.06 0.07 0.06 0.06 0.05 0.07 0.07 0.06 0.05 0.05 0.05 0.06 0.07 0.08 0.08
0.01 0.03 0.03 0.03 0.03 0.03 0.01 0.01 0.01 0.00 0.02 0.01 0.00 0.00 0.00 0.00 0.00 0.00 0.00 0.01 0.01 0.01 0.01 0.03 0.03 0.03 0.03 0.04 0.05 0.06 0.06 0.06 0.06 0.04 0.05 0.05 0.05 0.05 0.05 0.07 0.07 0.05 0.04 0.04 0.05 0.06 0.07 0.07 0.07
0.01 0.01 0.03 0.04 0.04 0.03 0.02 0.02 0.01 0.01 0.01 0.00 0.00 0.00 0.00 0.00 0.02 0.01 0.00 0.00 0.01 0.02 0.02 0.02 0.03 0.03 0.03 0.04 0.06 0.06 0.06 0.04 0.04 0.04 0.03 0.04 0.04 0.04 0.05 0.06 0.06 0.04 0.03 0.04 0.05 0.06 0.05 0.06 0.08
0.00 0.00 0.01 0.02 0.03 0.04 0.03 0.02 0.01 0.01 0.01 0.01 0.00 0.00 0.00 0.00 0.05 0.04 0.01 0.01 0.01 0.01 0.01 0.02 0.04 0.03 0.02 0.02 0.03 0.04 0.04 0.05 0.04 0.04 0.04 0.04 0.03 0.03 0.03 0.04 0.05 0.03 0.03 0.04 0.05 0.05 0.05 0.06 0.06
0.00 0.00 0.01 0.03 0.04 0.04 0.04 0.06 0.04 0.02 0.03 0.04 0.03 0.01 0.00 0.01 0.04 0.03 0.02 0.01 0.01 0.02 0.01 0.02 0.03 0.05 0.05 0.04 0.04 0.04 0.05 0.06 0.05 0.03 0.02 0.01 0.01 0.03 0.04 0.03 0.03 0.02 0.02 0.03 0.04 0.04 0.04 0.05 0.06
0.00 0.00 0.00 0.02 0.02 0.03 0.07 0.07 0.03 0.02 0.03 0.03 0.01 0.00 0.01 0.01 0.02 0.02 0.02 0.01 0.01 0.03 0.02 0.02 0.04 0.05 0.05 0.04 0.04 0.05 0.04 0.05 0.04 0.03 0.03 0.03 0.03 0.04 0.04 0.03 0.02 0.02 0.02 0.03 0.03 0.02 0.04 0.05 0.06
0.00 0.00 0.00 0.03 0.02 0.03 0.04 0.04 0.01 0.01 0.00 0.00 0.01 0.01 0.01 0.02 0.02 0.01 0.01 0.01 0.02 0.03 0.03 0.02 0.04 0.07 0.06 0.04 0.03 0.02 0.03 0.04 0.03 0.03 0.03 0.02 0.03 0.03 0.03 0.03 0.02 0.02 0.02 0.02 0.02 0.03 0.04 0.04 0.04
MSLP
1008.45 1009.25 1009.99 1010.50 1010.62 1010.30 1009.56 1008.49 1007.28 1006.12 1005.21 1004.68 1004.59 1004.89 1005.50 1006.25 1007.01 1007.64 1008.09 1008.33 1008.43 1008.46 1008.49 1008.61 1008.84 1009.17 1009.56 1009.96 1010.33 1010.65 1010.91 1011.16 1011.41 1011.71 1012.06 1012.47 1012.90 1013.31 1013.65 1013.88 1014.02 1014.06 1014.06 1014.04 1014.05 1014.11 1014.22 1014.36 1014.50
1008.73 1009.56 1010.23 1010.58 1010.49 1009.94 1008.98 1007.76 1006.48 1005.36 1004.58 1004.24 1004.38 1004.92 1005.73 1006.65 1007.50 1008.18 1008.63 1008.86 1008.93 1008.94 1008.98 1009.11 1009.36 1009.71 1010.13 1010.54 1010.91 1011.22 1011.47 1011.68 1011.91 1012.17 1012.49 1012.85 1013.23 1013.57 1013.85 1014.04 1014.13 1014.14 1014.12 1014.11 1014.12 1014.19 1014.30 1014.43 1014.55
1009.09 1009.90 1010.47 1010.65 1010.35 1009.60 1008.48 1007.18 1005.90 1004.88 1004.27 1004.14 1004.50 1005.24 1006.20 1007.22 1008.11 1008.79 1009.20 1009.39 1009.43 1009.43 1009.48 1009.64 1009.92 1010.32 1010.76 1011.19 1011.57 1011.87 1012.09 1012.28 1012.46 1012.67 1012.92 1013.21 1013.51 1013.77 1013.98 1014.11 1014.16 1014.16 1014.15 1014.14 1014.18 1014.26 1014.37 1014.49 1014.60
1009.43 1010.19 1010.62 1010.62 1010.15 1009.26 1008.07 1006.77 1005.58 1004.72 1004.31 1004.41 1004.96 1005.85 1006.90 1007.95 1008.83 1009.45 1009.81 1009.95 1009.97 1009.96 1010.04 1010.23 1010.56 1010.99 1011.46 1011.90 1012.27 1012.55 1012.74 1012.88 1013.01 1013.16 1013.33 1013.53 1013.74 1013.92 1014.06 1014.14 1014.16 1014.16 1014.15 1014.18 1014.24 1014.34 1014.45 1014.56 1014.65
1009.65 1010.28 1010.57 1010.41 1009.82 1008.87 1007.69 1006.50 1005.49 1004.85 1004.68 1004.99 1005.71 1006.69 1007.78 1008.80 1009.61 1010.16 1010.45 1010.55 1010.55 1010.57 1010.67 1010.91 1011.28 1011.74 1012.21 1012.63 1012.97 1013.21 1013.36 1013.44 1013.51 1013.59 1013.69 1013.81 1013.94 1014.04 1014.11 1014.14 1014.15 1014.15 1014.16 1014.22 1014.30 1014.42 1014.54 1014.64 1014.69
1009.60 1010.08 1010.20 1009.92 1009.27 1008.34 1007.29 1006.30 1005.55 1005.19 1005.28 1005.79 1006.65 1007.69 1008.76 1009.72 1010.44 1010.90 1011.12 1011.19 1011.20 1011.25 1011.41 1011.69 1012.08 1012.53 1012.97 1013.35 1013.63 1013.80 1013.87 1013.90 1013.90 1013.92 1013.96 1014.02 1014.08 1014.13 1014.15 1014.14 1014.13 1014.14 1014.17 1014.25 1014.36 1014.49 1014.61 1014.70 1014.73
1009.19 1009.49 1009.46 1009.10 1008.45 1007.63 1006.78 1006.07 1005.64 1005.60 1005.96 1006.69 1007.65 1008.72 1009.75 1010.62 1011.25 1011.63 1011.81 1011.87 1011.91 1012.01 1012.22 1012.53 1012.93 1013.34 1013.72 1014.01 1014.18 1014.26 1014.25 1014.21 1014.16 1014.13 1014.14 1014.16 1014.18 1014.18 1014.17 1014.14 1014.12 1014.12 1014.17 1014.26 1014.39 1014.53 1014.65 1014.72 1014.74
1008.45 1008.56 1008.40 1007.99 1007.40 1006.74 1006.16 1005.78 1005.70 1005.99 1006.62 1007.53 1008.59 1009.67 1010.65 1011.43 1011.98 1012.30 1012.47 1012.55 1012.65 1012.81 1013.07 1013.41 1013.78 1014.13 1014.41 1014.58 1014.62 1014.58 1014.48 1014.36 1014.27 1014.22 1014.21 1014.22 1014.23 1014.21 1014.18 1014.14 1014.10 1014.10 1014.15 1014.25 1014.38 1014.53 1014.66 1014.73 1014.75
1007.48 1007.41 1007.14 1006.72 1006.22 1005.77 1005.47 1005.42 1005.68 1006.28 1007.16 1008.23 1009.36 1010.45 1011.38 1012.10 1012.59 1012.89 1013.06 1013.20 1013.37 1013.61 1013.91 1014.26 1014.60 1014.87 1015.02 1015.04 1014.95 1014.78 1014.58 1014.40 1014.28 1014.22 1014.21 1014.23 1014.25 1014.24 1014.20 1014.15 1014.10 1014.08 1014.12 1014.22 1014.36 1014.51 1014.64 1014.73 1014.75
1006.46 1006.25 1005.91 1005.50 1005.11 1004.85 1004.81 1005.05 1005.61 1006.46 1007.53 1008.72 1009.91 1010.99 1011.88 1012.56 1013.03 1013.33 1013.56 1013.77 1014.02 1014.33 1014.68 1015.03 1015.32 1015.50 1015.53 1015.41 1015.18 1014.88 1014.59 1014.36 1014.21 1014.16 1014.18 1014.23 1014.27 1014.28 1014.25 1014.18 1014.12 1014.09 1014.11 1014.20 1014.34 1014.50 1014.64 1014.75 1014.80
1005.61 1005.32 1004.95 1004.57 1004.28 1004.17 1004.33 1004.78 1005.54 1006.56 1007.76 1009.01 1010.21 1011.28 1012.15 1012.81 1013.28 1013.62 1013.90 1014.19 1014.53 1014.91 1015.30 1015.65 1015.90 1016.00 1015.92 1015.68 1015.33 1014.94 1014.57 1014.29 1014.14 1014.09 1014.14 1014.23 1014.31 1014.34 1014.33 1014.27 1014.19 1014.15 1014.15 1014.23 1014.36 1014.53 1014.69 1014.83 1014.92
1005.13 1004.82 1004.45 1004.10 1003.89 1003.88 1004.14 1004.71 1005.56 1006.65 1007.87 1009.12 1010.31 1011.34 1012.19 1012.84 1013.33 1013.72 1014.07 1014.44 1014.85 1015.29 1015.71 1016.07 1016.29 1016.33 1016.18 1015.86 1015.43 1014.97 1014.55 1014.24 1014.08 1014.05 1014.12 1014.25 1014.36 1014.43 1014.44 1014.39 1014.32 1014.27 1014.26 1014.32 1014.45 1014.63 1014.82 1014.99 1015.12
1005.13 1004.85 1004.51 1004.21 1004.02 1004.05 1004.33 1004.89 1005.72 1006.75 1007.92 1009.10 1010.23 1011.22 1012.04 1012.69 1013.21 1013.64 1014.06 1014.48 1014.95 1015.43 1015.88 1016.25 1016.46 1016.48 1016.30 1015.95 1015.49 1014.99 1014.55 1014.22 1014.05 1014.03 1014.12 1014.27 1014.43 1014.54 1014.58 1014.56 1014.50 1014.45 1014.44 1014.49 1014.62 1014.81 1015.02 1015.23 1015.39
1005.59 1005.39 1005.11 1004.84 1004.66 1004.65 1004.86 1005.32 1006.01 1006.91 1007.93 1008.99 1010.02 1010.95 1011.74 1012.40 1012.94 1013.42 1013.87 1014.33 1014.82 1015.32 1015.79 1016.17 1016.39 1016.43 1016.27 1015.94 1015.49 1015.01 1014.57 1014.23 1014.05 1014.03 1014.12 1014.29 1014.47 1014.62 1014.70 1014.72 1014.70 1014.67 1014.67 1014.74 1014.87 1015.06 1015.28 1015.51 1015.70
1006.35 1006.25 1006.04 1005.81 1005.62 1005.53 1005.62 1005.90 1006.40 1007.09 1007.91 1008.81 1009.72 1010.58 1011.35 1012.01 1012.58 1013.08 1013.55 1014.02 1014.51 1015.00 1015.46 1015.85 1016.11 1016.20 1016.10 1015.83 1015.44 1015.00 1014.58 1014.25 1014.06 1014.01 1014.09 1014.26 1014.46 1014.65 1014.78 1014.86 1014.89 1014.91 1014.94 1015.01 1015.14 1015.33 1015.56 1015.79 1015.99
1007.15 1007.17 1007.05 1006.86 1006.65 1006.49 1006.43 1006.51 1006.77 1007.22 1007.83 1008.56 1009.35 1010.14 1010.89 1011.57 1012.16 1012.68 1013.15 1013.61 1014.06 1014.53 1014.97 1015.36 1015.66 1015.81 1015.80 1015.64 1015.34 1014.97 1014.59 1014.26 1014.05 1013.97 1014.02 1014.17 1014.37 1014.59 1014.79 1014.94 1015.04 1015.11 1015.18 1015.28 1015.41 1015.59 1015.80 1016.02 1016.22
1007.75 1007.87 1007.86 1007.74 1007.54 1007.32 1007.12 1007.01 1007.05 1007.26 1007.66 1008.22 1008.90 1009.64 1010.39 1011.09 1011.71 1012.25 1012.72 1013.15 1013.56 1013.97 1014.38 1014.77 1015.10 1015.33 1015.43 1015.38 1015.19 1014.90 1014.57 1014.26 1014.02 1013.89 1013.89 1014.01 1014.21 1014.46 1014.71 1014.93 1015.11 1015.25 1015.37 1015.49 1015.63 1015.79 1015.98 1016.17 1016.35
1007.94 1008.18 1008.29 1008.27 1008.12 1007.87 1007.58 1007.31 1007.15 1007.15 1007.35 1007.76 1008.35 1009.07 1009.83 1010.58 1011.25 1011.82 1012.30 1012.70 1013.06 1013.41 1013.77 1014.15 1014.50 1014.80 1015.00 1015.08 1015.01 1014.82 1014.54 1014.24 1013.97 1013.80 1013.74 1013.81 1013.99 1014.25 1014.54 1014.83 1015.09 1015.31 1015.48 1015.63 1015.77 1015.91 1016.07 1016.23 1016.38
1007.67 1008.03 1008.29 1008.40 1008.35 1008.12 1007.78 1007.39 1007.06 1006.87 1006.90 1007.18 1007.70 1008.40 1009.19 1010.01 1010.75 1011.38 1011.88 1012.26 1012.59 1012.88 1013.20 1013.55 1013.92 1014.28 1014.58 1014.76 1014.81 1014.72 1014.50 1014.22 1013.93 1013.70 1013.58 1013.59 1013.73 1013.99 1014.31 1014.65 1014.98 1015.26 1015.48 1015.66 1015.80 1015.93 1016.06 1016.18 1016.31
1007.02 1007.52 1007.95 1008.24 1008.31 1008.15 1007.79 1007.31 1006.83 1006.47 1006.33 1006.48 1006.92 1007.60 1008.44 1009.33 1010.16 1010.88 1011.43 1011.84 1012.14 1012.40 1012.68 1013.00 1013.38 1013.78 1014.15 1014.44 1014.60 1014.60 1014.46 1014.20 1013.90 1013.62 1013.43 1013.38 1013.47 1013.70 1014.02 1014.40 1014.77 1015.10 1015.37 1015.58 1015.73 1015.85 1015.95 1016.05 1016.16
1006.19 1006.85 1007.49 1007.97 1008.20 1008.12 1007.76 1007.19 1006.56 1006.01 1005.68 1005.68 1006.01 1006.66 1007.53 1008.50 1009.44 1010.26 1010.90 1011.36 1011.68 1011.93 1012.18 1012.49 1012.86 1013.29 1013.73 1014.11 1014.36 1014.46 1014.39 1014.17 1013.87 1013.56 1013.32 1013.19 1013.22 1013.40 1013.70 1014.08 1014.47 1014.84 1015.14 1015.37 1015.54 1015.66 1015.75 1015.85 1015.95
1005.45 1006.30 1007.16 1007.84 1008.22 1008.22 1007.83 1007.16 1006.34 1005.57 1005.02 1004.81 1005.01 1005.58 1006.45 1007.48 1008.53 1009.47 1010.22 1010.77 1011.15 1011.42 1011.67 1011.96 1012.34 1012.78 1013.27 1013.72 1014.06 1014.25 1014.26 1014.10 1013.82 1013.50 1013.21 1013.02 1012.98 1013.09 1013.35 1013.70 1014.09 1014.47 1014.80 1015.05 1015.24 1015.38 1015.48 1015.58 1015.69
1005.00 1006.07 1007.15 1008.03 1008.53 1008.57 1008.13 1007.31 1006.26 1005.22 1004.39 1003.93 1003.93 1004.38 1005.21 1006.28 1007.42 1008.48 1009.36 1010.03 1010.49 1010.81 1011.08 1011.38 1011.75 1012.21 1012.73 1013.23 1013.66 1013.94 1014.04 1013.95 1013.71 1013.39 1013.08 1012.84 1012.73 1012.77 1012.96 1013.27 1013.63 1014.01 1014.35 1014.63 1014.84 1015.01 1015.14 1015.26 1015.39
1004.94 1006.24 1007.52 1008.56 1009.15 1009.19 1008.65 1007.64 1006.34 1004.99 1003.85 1003.09 1002.85 1003.13 1003.87 1004.93 1006.14 1007.31 1008.32 1009.11 1009.68 1010.08 1010.39 1010.69 1011.07 1011.54 1012.07 1012.63 1013.12 1013.49 1013.68 1013.67 1013.49 1013.21 1012.89 1012.61 1012.44 1012.42 1012.54 1012.79 1013.12 1013.48 1013.83 1014.13 1014.37 1014.57 1014.73 1014.88 1015.04
1005.22 1006.72 1008.18 1009.33 1009.97 1009.97 1009.31 1008.09 1006.52 1004.86 1003.39 1002.33 1001.82 1001.90 1002.52 1003.54 1004.77 1006.02 1007.15 1008.06 1008.74 1009.21 1009.57 1009.91 1010.29 1010.76 1011.31 1011.89 1012.44 1012.88 1013.16 1013.24 1013.14 1012.91 1012.61 1012.32 1012.11 1012.03 1012.09 1012.28 1012.57 1012.91 1013.26 1013.58 1013.86 1014.09 1014.28 1014.46 1014.63
1005.64 1007.31 1008.88 1010.11 1010.75 1010.69 1009.90 1008.50 1006.70 1004.77 1003.01 1001.67 1000.91 1000.80 1001.27 1002.22 1003.44 1004.73 1005.94 1006.94 1007.71 1008.27 1008.68 1009.04 1009.43 1009.89 1010.45 1011.05 1011.64 1012.14 1012.50 1012.67 1012.66 1012.49 1012.23 1011.96 1011.73 1011.62 1011.63 1011.78 1012.04 1012.36 1012.70 1013.04 1013.34 1013.60 1013.81 1014.00 1014.18
1005.95 1007.72 1009.36 1010.60 1011.22 1011.10 1010.23 1008.70 1006.74 1004.63 1002.68 1001.13 1000.18 999.89 1000.23 1001.08 1002.25 1003.55 1004.79 1005.85 1006.68 1007.30 1007.76 1008.14 1008.53 1008.99 1009.54 1010.14 1010.76 1011.31 1011.74 1011.99 1012.06 1011.97 1011.77 1011.53 1011.32 1011.19 1011.19 1011.31 1011.54 1011.85 1012.20 1012.54 1012.86 1013.13 1013.35 1013.53 1013.68
1005.91 1007.70 1009.33 1010.55 1011.14 1010.99 1010.08 1008.53 1006.53 1004.37 1002.35 1000.72 999.65 999.24 999.47 1000.21 1001.31 1002.56 1003.78 1004.86 1005.72 1006.37 1006.85 1007.25 1007.65 1008.10 1008.63 1009.23 1009.86 1010.44 1010.92 1011.24 1011.39 1011.38 1011.25 1011.07 1010.89 1010.78 1010.78 1010.89 1011.12 1011.42 1011.76 1012.11 1012.43 1012.69 1012.90 1013.05 1013.16
1005.36 1007.09 1008.64 1009.79 1010.35 1010.20 1009.35 1007.88 1005.99 1003.93 1001.99 1000.40 999.33 998.87 999.01 999.65 1000.65 1001.81 1002.97 1004.01 1004.86 1005.51 1006.00 1006.41 1006.81 1007.25 1007.77 1008.37 1008.99 1009.58 1010.09 1010.47 1010.68 1010.75 1010.69 1010.58 1010.46 1010.39 1010.41 1010.54 1010.77 1011.07 1011.41 1011.75 1012.05 1012.30 1012.47 1012.57 1012.62
1004.36 1005.93 1007.34 1008.38 1008.90 1008.79 1008.06 1006.78 1005.12 1003.30 1001.57 1000.13 999.16 998.72 998.81 999.35 1000.22 1001.26 1002.31 1003.27 1004.07 1004.70 1005.19 1005.61 1006.01 1006.46 1006.97 1007.56 1008.17 1008.77 1009.29 1009.70 1009.97 1010.10 1010.12 1010.08 1010.03 1010.01 1010.07 1010.22 1010.47 1010.77 1011.10 1011.43 1011.71 1011.91 1012.04 1012.08 1012.07
Thickness
5833 5835 5833 5824 5807 5798 5799 5814 5826 5827 5831 5842 5844 5838 5825 5817 5807 5795 5823 5835 5832 5826 5822 5818 5815 5813 5811 5809 5808 5806 5805 5804 5803 5801 5800 5799 5797 5795 5794 5792 5791 5789 5787 5785 5783 5782 5781 5779 5778
5841 5842 5832 5818 5800 5792 5799 5820 5824 5830 5840 5848 5846 5839 5828 5821 5827 5823 5828 5834 5834 5829 5824 5819 5815 5813 5811 5809 5808 5806 5805 5804 5802 5801 5800 5798 5796 5795 5793 5792 5790 5789 5787 5785 5783 5782 5780 5779 5777
5843 5844 5825 5814 5809 5803 5807 5827 5832 5843 5851 5847 5839 5838 5828 5821 5828 5828 5832 5838 5836 5830 5824 5818 5815 5813 5811 5809 5808 5807 5806 5804 5802 5800 5799 5798 5796 5795 5793 5792 5790 5789 5787 5785 5783 5781 5780 5778 5777
5843 5838 5829 5818 5811 5827 5832 5838 5846 5844 5847 5850 5842 5828 5829 5836 5835 5835 5839 5840 5835 5829 5824 5818 5815 5812 5810 5808 5807 5806 5806 5803 5801 5799 5798 5797 5796 5794 5793 5792 5790 5788 5786 5784 5783 5781 5780 5778 5777
5846 5828 5816 5814 5819 5838 5848 5852 5853 5844 5842 5844 5839 5822 5820 5837 5843 5842 5842 5840 5834 5829 5824 5818 5814 5812 5809 5808 5806 5805 5804 5802 5800 5798 5797 5796 5795 5794 5793 5791 5789 5788 5786 5784 5782 5780 5779 5778 5777
5834 5827 5809 5808 5823 5841 5852 5858 5856 5848 5845 5846 5839 5824 5820 5838 5839 5841 5842 5840 5837 5831 5825 5818 5814 5812 5809 5807 5805 5804 5802 5801 5799 5798 5796 5795 5794 5793 5792 5790 5789 5787 5785 5783 5782 5780 5779 5778 5777
5832 5825 5814 5818 5826 5835 5851 5863 5855 5848 5845 5848 5848 5827 5823 5834 5840 5843 5842 5840 5837 5833 5826 5820 5815 5812 5809 5807 5805 5803 5802 5800 5798 5797 5796 5794 5793 5792 5791 5789 5788 5786 5785 5783 5782 5781 5780 5779 5778
5852 5838 5824 5826 5828 5834 5856 5863 5862 5855 5849 5861 5857 5831 5820 5833 5843 5843 5841 5838 5836 5832 5828 5823 5819 5815 5811 5808 5805 5803 5801 5799 5798 5797 5795 5794 5793 5792 5791 5789 5788 5786 5784 5783 5782 5781 5780 5779 5778
5865 5832 5824 5834 5836 5842 5860 5857 5861 5867 5857 5856 5856 5848 5842 5845 5844 5838 5834 5832 5830 5830 5829 5827 5822 5819 5815 5811 5806 5804 5801 5799 5798 5796 5795 5794 5793 5793 5791 5790 5788 5786 5784 5783 5782 5782 5781 5780 5779
5855 5828 5838 5856 5860 5857 5861 5859 5860 5856 5847 5842 5844 5846 5848 5845 5841 5834 5829 5826 5825 5825 5827 5826 5824 5821 5818 5814 5808 5805 5803 5800 5799 5798 5796 5795 5794 5793 5792 5789 5788 5787 5785 5784 5783 5782 5781 5780 5780
5854 5844 5859 5867 5871 5868 5863 5864 5866 5853 5838 5840 5839 5841 5844 5842 5839 5835 5831 5830 5828 5828 5827 5826 5824 5821 5819 5814 5810 5808 5806 5802 5800 5799 5797 5796 5794 5793 5791 5789 5787 5787 5785 5784 5783 5783 5782 5782 5782
5857 5861 5870 5871 5876 5870 5866 5865 5861 5854 5850 5859 5857 5852 5846 5841 5838 5836 5833 5831 5831 5828 5826 5826 5823 5819 5817 5814 5811 5809 5807 5804 5802 5799 5798 5796 5794 5792 5791 5790 5789 5788 5787 5786 5785 5785 5784 5783 5783
5861 5864 5875 5878 5877 5876 5872 5864 5859 5857 5864 5867 5863 5855 5849 5844 5841 5840 5838 5835 5831 5827 5825 5824 5821 5817 5814 5812 5810 5809 5806 5804 5802 5799 5797 5795 5794 5791 5790 5789 5788 5788 5787 5786 5785 5785 5784 5783 5782
5870 5871 5874 5878 5877 5877 5867 5863 5860 5858 5867 5864 5859 5852 5850 5846 5843 5839 5836 5832 5829 5826 5824 5823 5819 5816 5812 5809 5808 5807 5806 5804 5802 5799 5797 5795 5793 5791 5790 5788 5787 5787 5787 5786 5785 5785 5784 5783 5782
5874 5860 5861 5872 5877 5876 5867 5849 5854 5864 5868 5860 5856 5853 5849 5848 5846 5840 5838 5834 5830 5826 5824 5820 5818 5814 5811 5808 5807 5807 5805 5803 5801 5798 5796 5794 5793 5791 5789 5787 5786 5787 5787 5786 5785 5784 5783 5782 5782
5855 5843 5836 5861 5876 5877 5859 5830 5854 5871 5865 5857 5856 5853 5849 5848 5847 5845 5841 5836 5832 5828 5823 5820 5819 5814 5810 5807 5806 5805 5804 5802 5799 5798 5795 5793 5792 5791 5789 5788 5787 5787 5787 5786 5784 5782 5780 5780 5780
5836 5824 5832 5851 5876 5876 5861 5842 5861 5873 5866 5857 5855 5854 5850 5847 5847 5846 5844 5838 5833 5828 5823 5819 5817 5813 5809 5807 5805 5803 5801 5799 5798 5796 5794 5792 5791 5790 5789 5788 5787 5788 5786 5785 5784 5782 5780 5778 5778
5829 5836 5839 5847 5869 5873 5861 5854 5863 5874 5868 5862 5858 5855 5852 5847 5846 5847 5845 5840 5834 5829 5824 5819 5816 5812 5809 5806 5803 5801 5799 5798 5797 5795 5793 5792 5790 5789 5788 5788 5787 5787 5785 5784 5782 5780 5779 5778 5777
5853 5849 5845 5856 5877 5871 5861 5856 5864 5873 5870 5863 5859 5856 5852 5850 5852 5850 5846 5841 5834 5828 5823 5818 5814 5811 5808 5804 5800 5797 5794 5794 5794 5794 5793 5791 5790 5789 5788 5787 5786 5786 5783 5782 5781 5779 5777 5776 5776
5857 5848 5848 5862 5879 5870 5857 5856 5867 5872 5870 5868 5862 5858 5856 5852 5850 5847 5844 5840 5834 5827 5822 5818 5814 5812 5809 5805 5802 5799 5797 5795 5794 5793 5791 5790 5789 5788 5788 5785 5785 5784 5782 5780 5779 5777 5774 5774 5775
5852 5849 5852 5858 5866 5868 5854 5843 5854 5869 5874 5873 5871 5867 5863 5856 5850 5845 5843 5839 5835 5828 5824 5821 5816 5813 5810 5807 5803 5800 5796 5793 5792 5790 5789 5789 5788 5787 5786 5785 5783 5782 5781 5778 5777 5776 5773 5769 5771
5842 5865 5865 5861 5847 5839 5846 5814 5838 5856 5862 5864 5867 5867 5864 5860 5855 5849 5844 5840 5836 5832 5828 5823 5817 5813 5810 5807 5803 5798 5792 5788 5789 5789 5788 5788 5787 5786 5785 5784 5782 5781 5780 5778 5777 5776 5774 5770 5766
5857 5873 5866 5859 5845 5834 5841 5824 5828 5850 5845 5857 5866 5868 5866 5864 5859 5852 5848 5843 5841 5837 5831 5824 5818 5813 5810 5807 5803 5799 5795 5792 5791 5789 5787 5786 5786 5786 5784 5783 5781 5779 5778 5777 5775 5774 5772 5769 5766
5870 5864 5857 5850 5836 5811 5829 5824 5821 5846 5850 5859 5869 5870 5868 5866 5860 5855 5851 5846 5841 5838 5833 5826 5818 5812 5810 5806 5803 5799 5795 5792 5789 5787 5784 5783 5784 5784 5783 5782 5780 5779 5777 5776 5774 5772 5770 5768 5766
5860 5838 5815 5808 5805 5810 5838 5833 5834 5862 5870 5871 5872 5870 5869 5865 5860 5854 5848 5842 5839 5836 5831 5826 5818 5811 5809 5806 5803 5800 5796 5793 5789 5786 5784 5783 5782 5781 5781 5781 5778 5777 5775 5774 5772 5770 5768 5767 5764
5848 5840 5810 5795 5800 5814 5827 5822 5846 5873 5879 5880 5878 5875 5869 5863 5859 5852 5848 5843 5838 5835 5830 5824 5817 5812 5809 5805 5802 5800 5797 5794 5791 5789 5787 5784 5783 5782 5781 5780 5777 5775 5774 5773 5770 5768 5766 5765 5762
5842 5840 5846 5829 5821 5807 5811 5824 5845 5868 5867 5869 5870 5869 5862 5860 5857 5853 5849 5845 5840 5835 5830 5825 5818 5812 5808 5805 5801 5798 5796 5793 5791 5789 5788 5786 5783 5783 5780 5778 5775 5773 5771 5769 5768 5765 5763 5762 5759
5857 5851 5838 5822 5799 5792 5801 5811 5821 5842 5850 5857 5857 5859 5858 5856 5853 5851 5848 5845 5841 5836 5831 5825 5818 5812 5808 5805 5801 5798 5795 5792 5790 5788 5785 5784 5783 5781 5778 5776 5773 5771 5769 5767 5764 5762 5760 5757 5755
5840 5839 5835 5828 5823 5801 5790 5807 5845 5846 5853 5852 5854 5858 5855 5853 5849 5847 5846 5844 5840 5835 5829 5822 5816 5810 5806 5803 5800 5797 5793 5791 5789 5786 5784 5782 5781 5779 5776 5773 5770 5768 5765 5763 5760 5758 5756 5753 5751
5848 5842 5836 5813 5809 5818 5805 5808 5859 5860 5862 5857 5852 5852 5852 5851 5847 5846 5843 5840 5835 5831 5826 5820 5815 5809 5805 5802 5798 5794 5792 5789 5786 5784 5782 5781 5778 5776 5774 5771 5768 5765 5763 5760 5757 5753 5752 5749 5746